Tracking 29967 objects as of 5-Dec-2024
HD Live streaming from Space Station
objects crossing your sky now

STARLINK-30373

Track STARLINK-30373 now!
10-day predictions
STARLINK-30373 is classified as:


NORAD ID: 57790
Int'l Code: 2023-134V
Perigee: 565.4 km
Apogee: 567.0 km
Inclination: 43.0 °
Period: 95.8 minutes
Semi major axis: 6937 km
RCS: Unknown
Launch date: September 4, 2023
Source: United States (US)
Launch site: AIR FORCE EASTERN TEST RANGE (AFETR)
Your satellite tracking list
Your tracking list is empty




NASA's NSSDC Master Catalog

Two Line Element Set (TLE):
1 57790U 23134V   24340.27971005 -.00000544  00000-0 -25212-4 0  9996
2 57790  43.0017 173.8280 0001151 291.2569  68.8150 15.02543264 70362
Source of the keplerian elements: AFSPC